Simultaneous Nadir Overpasses (SNOs) Predictions

Prediction of SNOs over PacNW region [( 10.00, 139.50) to ( 22.70, 165.60)] between AQUA and NPP Satellites:

Table of predicted SNOs over PacNW region for the next 30.0 days since TLE Epoch: 11/12/2022
Index Date (AQUA) Time (AQUA) AQUA Lat,Lon Date (NPP) Time (NPP) NPP Lat,Lon Distance(km) Time Diff (sec)
1 11/13/2022 03:04:34 22.65, 155.89 11/13/2022 03:02:35 21.95, 152.28 379.34 119
2 11/21/2022 03:49:09 15.53, 145.95 11/21/2022 03:51:07 14.53, 141.42 498.76 118
3 11/23/2022 15:50:13 10.59, 149.55 11/23/2022 15:46:53 11.21, 146.50 340.24 200
4 11/29/2022 02:55:14 10.11, 160.31 11/29/2022 02:58:42 9.06, 155.42 548.97 208
5 12/01/2022 14:56:12 16.17, 163.96 12/01/2022 14:54:24 16.84, 160.55 371.14 108
6 12/01/2022 16:33:17 22.59, 140.74 12/01/2022 16:34:00 23.51, 136.81 414.18 43
